Waarnemingen

Advertentie
Mijn weer
S. Maria Di Leuca, Italië (16360): temperatuur & dauwpunt: 14.08.2018 01:00:00 - 20.08.2018 01:00:00 (CEST)S. Maria Di Leuca, Italië (16360): windsnelheid: 14.08.2018 01:00:00 - 20.08.2018 01:00:00 (CEST)S. Maria Di Leuca, Italië (16360): windrichting: 14.08.2018 01:00:00 - 20.08.2018 01:00:00 (CEST)S. Maria Di Leuca, Italië (16360): luchtdruk: 14.08.2018 01:00:00 - 20.08.2018 01:00:00 (CEST)S. Maria Di Leuca, Italië (16360): zicht: 14.08.2018 01:00:00 - 20.08.2018 01:00:00 (CEST)S. Maria Di Leuca, Italië (16360): Zonneschijnduur: 14.08.2018 01:00:00 - 20.08.2018 01:00:00 (CEST)
Datum & Tijd tt [°C] td [°C] ff [km/u] ff [kn] dd ppp [hPa] vv [km] sd [min]
20.08.2018 01:00:00 25,8 22,5 16 9 N 1012,2 10 -
20.08.2018 00:00:00 25,8 22,5 16 9 N 1012,7 10 -
19.08.2018 23:00:00 25,8 23,7 18 10 N 1012,7 10 -
19.08.2018 22:00:00 25,8 23,7 15 8 NNO 1012,5 10 -
19.08.2018 21:00:00 26,0 23,1 9 5 N 1012,3 10 -
19.08.2018 20:00:00 26,0 23,9 5 3 NNW 1012,1 10 0
19.08.2018 19:00:00 26,4 24,1 8 4 W 1012,0 10 0
19.08.2018 18:00:00 26,6 21,1 8 4 W 1012,3 10 60
19.08.2018 17:00:00 26,4 20,5 9 5 ONO 1012,6 10 36
19.08.2018 16:00:00 26,0 17,1 9 5 NO 1012,8 10 36
19.08.2018 15:00:00 26,0 18,2 13 7 NO 1013,2 10 0
19.08.2018 14:00:00 25,8 21,7 5 3 ZW 1013,5 10 0
19.08.2018 13:00:00 26,0 19,9 4 2 ZZO 1013,7 10 0
19.08.2018 12:00:00 26,0 20,8 5 3 NNW 1013,7 10 0
19.08.2018 11:00:00 26,0 21,7 16 9 NNO 1012,9 10 12
19.08.2018 10:00:00 25,2 22,1 16 9 NNO 1013,0 10 30
19.08.2018 09:00:00 24,8 21,9 26 14 N 1013,0 10 60
19.08.2018 08:00:00 24,8 21,7 24 13 N 1013,0 10 18
19.08.2018 07:00:00 24,8 21,7 24 13 N 1012,9 10 0
19.08.2018 06:00:00 25,0 21,7 18 10 N 1012,9 10 -
19.08.2018 05:00:00 25,0 21,7 18 10 N 1012,9 10 -
19.08.2018 04:00:00 24,8 21,5 16 9 N 1012,9 10 -
19.08.2018 03:00:00 24,8 22,7 22 12 N 1013,8 10 -
19.08.2018 02:00:00 25,0 22,9 22 12 NNO 1013,8 10 -
19.08.2018 01:00:00 25,0 22,9 22 12 N 1013,8 10 -
19.08.2018 00:00:00 25,0 22,9 21 11 NNO 1013,8 10 -
18.08.2018 23:00:00 25,2 23,1 18 10 NNO 1013,8 10 -
18.08.2018 22:00:00 25,0 23,6 15 8 N 1013,8 10 -
18.08.2018 21:00:00 25,6 22,5 11 6 N 1013,4 10 -
18.08.2018 20:00:00 26,8 24,5 9 5 N 1012,8 10 42
18.08.2018 19:00:00 27,0 23,9 8 4 W 1012,8 10 60
18.08.2018 18:00:00 27,0 23,0 8 4 WZW 1012,8 10 60
18.08.2018 17:00:00 27,0 23,7 5 3 W 1012,8 10 0
18.08.2018 16:00:00 26,4 24,6 9 5 WNW 1012,8 8 24
18.08.2018 15:00:00 28,4 25,6 5 3 N 1012,7 9 60
18.08.2018 14:00:00 28,4 24,6 9 5 Z 1013,5 15 60
18.08.2018 13:00:00 28,6 25,0 11 6 WNW 1013,5 15 60
18.08.2018 12:00:00 28,8 19,4 11 6 NO 1013,5 15 60
18.08.2018 11:00:00 27,8 19,6 11 6 NNO 1013,6 15 60
18.08.2018 10:00:00 26,2 21,6 13 7 N 1013,3 15 60
18.08.2018 09:00:00 25,0 22,3 21 11 NNO 1013,0 15 60
18.08.2018 08:00:00 24,0 21,1 18 10 NNO 1012,9 15 18
18.08.2018 07:00:00 23,6 20,3 18 10 N 1013,5 15 0
18.08.2018 06:00:00 23,0 19,4 18 10 N 1013,5 10 -
18.08.2018 05:00:00 23,0 19,8 18 10 N 1013,5 10 -
18.08.2018 04:00:00 23,2 20,0 15 8 N 1013,5 10 60
18.08.2018 03:00:00 23,4 21,1 13 7 N 1013,5 10 -
18.08.2018 02:00:00 24,0 22,3 13 7 NNW 1013,4 10 -
18.08.2018 01:00:00 24,0 22,1 11 6 NNW 1013,4 10 -
18.08.2018 00:00:00 24,0 22,1 13 7 NNW 1013,4 10 -
17.08.2018 23:00:00 24,0 22,1 11 6 NW 1013,2 10 -
17.08.2018 22:00:00 24,6 22,5 11 6 N 1013,2 10 -
17.08.2018 21:00:00 25,0 21,5 8 4 NNO 1012,9 10 -
17.08.2018 20:00:00 25,2 22,3 4 2 ONO 1012,9 10 12
17.08.2018 19:00:00 26,0 22,3 5 3 W 1011,9 15 54
17.08.2018 18:00:00 26,0 21,0 8 4 NNW 1012,4 15 60
17.08.2018 17:00:00 25,2 21,5 8 4 N 1013,0 15 60
17.08.2018 16:00:00 22,8 20,0 8 4 N 1013,2 10 6
17.08.2018 15:00:00 21,4 19,5 13 7 NNW 1013,4 10 0
17.08.2018 14:00:00 21,6 17,6 11 6 N 1013,4 10 0
17.08.2018 13:00:00 21,4 18,2 11 6 WNW 1013,4 8 0
17.08.2018 12:00:00 25,0 22,9 4 2 O 1012,9 6 0
17.08.2018 11:00:00 27,0 21,1 5 3 NNW 1013,1 15 60
17.08.2018 10:00:00 26,0 21,9 8 4 N 1012,5 20 60
17.08.2018 09:00:00 24,6 21,3 11 6 NNO 1012,4 20 60
17.08.2018 08:00:00 22,8 20,2 11 6 N 1012,3 20 60
17.08.2018 07:00:00 22,2 19,7 15 8 N 1011,6 10 18
17.08.2018 06:00:00 22,4 20,1 15 8 N 1011,7 10 -
17.08.2018 05:00:00 22,4 20,1 13 7 N 1011,7 10 -
17.08.2018 04:00:00 22,4 20,1 13 7 N 1011,7 10 -
17.08.2018 03:00:00 22,4 20,1 13 7 N 1011,7 10 -
17.08.2018 02:00:00 22,6 20,0 13 7 N 1011,9 10 -
17.08.2018 01:00:00 22,6 20,0 15 8 N 1011,9 10 -
17.08.2018 00:00:00 23,0 20,3 15 8 N 1011,5 10 -
16.08.2018 23:00:00 23,0 20,3 15 8 N 1011,5 10 -
16.08.2018 22:00:00 23,0 19,8 15 8 N 1011,5 10 -
16.08.2018 21:00:00 23,0 19,8 18 10 NNO 1011,4 10 -
16.08.2018 20:00:00 23,4 19,8 16 9 NO 1011,6 10 -
16.08.2018 19:00:00 24,0 18,7 15 8 ONO 1011,4 10 60
16.08.2018 18:00:00 24,0 15,8 15 8 ONO 1011,4 10 60
16.08.2018 17:00:00 24,0 15,8 5 3 NNO 1011,4 10 60
16.08.2018 16:00:00 24,0 20,3 5 3 WNW 1011,4 10 18
16.08.2018 15:00:00 23,0 19,4 9 5 NO 1011,3 10 12
16.08.2018 14:00:00 21,2 18,2 5 3 W 1011,5 10 0
16.08.2018 13:00:00 21,0 17,4 8 4 OZO 1012,6 8 0
16.08.2018 12:00:00 20,4 18,4 9 5 ZW 1012,7 6 0
16.08.2018 11:00:00 21,0 18,9 29 16 ZO 1012,0 5 0
16.08.2018 10:00:00 24,4 22,3 8 4 NW 1010,4 10 0
16.08.2018 09:00:00 24,2 22,1 5 3 NNW 1010,2 10 0
16.08.2018 08:00:00 23,8 21,7 11 6 NNW 1010,0 10 -
16.08.2018 07:00:00 23,2 21,1 18 10 NNO 1009,9 15 0
16.08.2018 06:00:00 23,0 20,5 16 9 NNO 1010,0 15 -
16.08.2018 05:00:00 23,0 21,3 16 9 NNO 1010,0 15 -
16.08.2018 04:00:00 24,0 20,3 16 9 NNO 1010,3 15 -
16.08.2018 03:00:00 28,0 24,2 16 9 N 1010,4 15 -
16.08.2018 02:00:00 25,0 18,2 9 5 NNW 1010,9 15 -
16.08.2018 01:00:00 25,4 21,1 8 4 N 1011,4 20 -
16.08.2018 00:00:00 25,0 22,9 16 9 ONO 1011,6 15 -
15.08.2018 23:00:00 25,0 22,9 16 9 NNO 1011,2 15 -
15.08.2018 22:00:00 25,4 21,7 9 5 N 1011,2 15 -
15.08.2018 21:00:00 26,2 19,8 9 5 WNW 1010,8 15 -
15.08.2018 20:00:00 26,8 20,4 9 5 W 1010,0 15 18
15.08.2018 19:00:00 27,0 19,1 11 6 W 1010,1 20 54
15.08.2018 18:00:00 27,8 18,8 9 5 WZW 1010,0 20 60
15.08.2018 17:00:00 28,0 19,5 8 4 W 1009,8 20 60
15.08.2018 16:00:00 27,0 21,1 18 10 W 1009,8 20 60
15.08.2018 15:00:00 27,0 21,7 16 9 W 1010,5 15 60
15.08.2018 14:00:00 28,0 22,9 16 9 W 1010,3 15 24
15.08.2018 13:00:00 27,0 20,6 5 3 W 1010,5 15 60
15.08.2018 12:00:00 26,0 23,1 16 9 W 1011,1 15 36
15.08.2018 11:00:00 26,4 23,7 22 12 W 1010,9 15 60
15.08.2018 10:00:00 26,4 23,1 11 6 WZW 1010,6 15 60
15.08.2018 09:00:00 26,0 23,5 4 2 NNO 1010,5 15 60
15.08.2018 08:00:00 24,4 21,9 9 5 N 1009,9 15 60
15.08.2018 07:00:00 23,6 21,3 13 7 N 1009,9 12 0
15.08.2018 06:00:00 23,6 21,3 13 7 N 1009,9 12 0
15.08.2018 05:00:00 24,4 22,1 11 6 NNO 1010,2 10 -
15.08.2018 04:00:00 - - - - - - - -
15.08.2018 03:00:00 - - - - - - - -
15.08.2018 02:00:00 26,6 24,5 9 5 NNW 1010,8 10 -
15.08.2018 01:00:00 26,8 23,9 5 3 NNW 1010,8 10 -
15.08.2018 00:00:00 26,8 24,7 9 5 WNW 1010,8 10 -
14.08.2018 23:00:00 26,8 24,5 9 5 WNW 1010,8 10 -
14.08.2018 22:00:00 27,0 24,7 9 5 W 1010,8 10 -
14.08.2018 21:00:00 27,2 24,9 8 4 ZW 1010,7 10 -
14.08.2018 20:00:00 27,2 25,0 9 5 ZZW 1010,6 10 0
14.08.2018 19:00:00 27,4 25,6 9 5 Z 1010,4 10 48
14.08.2018 18:00:00 27,8 26,0 9 5 ZZO 1010,3 10 60
14.08.2018 17:00:00 28,0 25,2 9 5 ZO 1010,7 10 60
14.08.2018 16:00:00 28,0 25,2 9 5 ZW 1011,1 10 60
14.08.2018 15:00:00 27,8 25,8 8 4 Z 1011,7 10 24
14.08.2018 14:00:00 27,8 25,6 9 5 ZZO 1011,8 10 18
14.08.2018 13:00:00 27,4 25,0 9 5 ONO 1011,8 10 24
14.08.2018 12:00:00 27,4 25,2 9 5 W 1011,9 10 12
14.08.2018 11:00:00 27,0 24,7 11 6 ZZO 1011,9 10 12
14.08.2018 10:00:00 27,0 24,3 9 5 OZO 1011,8 10 0
14.08.2018 09:00:00 26,6 22,9 11 6 OZO 1011,8 10 0
14.08.2018 08:00:00 26,4 23,1 5 3 OZO 1011,7 10 0
14.08.2018 07:00:00 26,0 22,9 5 3 O 1011,5 8 0
14.08.2018 06:00:00 26,2 23,3 4 2 O 1011,2 10 -
14.08.2018 05:00:00 26,4 23,5 5 3 Z 1011,2 10 -
14.08.2018 04:00:00 26,4 23,5 4 2 W 1011,2 10 -
14.08.2018 03:00:00 26,4 23,7 4 2 Z 1012,1 10 -
14.08.2018 02:00:00 26,4 24,4 8 4 ZW 1012,3 10 -
14.08.2018 01:00:00 26,8 24,5 5 3 WZW 1012,2 10 -

tt = temperatuur
td = dauwpunt
ff = windsnelheid
dd = windrichting
ppp = luchtdruk
vv = zicht
sd = Zonneschijnduur

Weerstations in de omgeving